Location: Newark
(13.6797°N, 8.5297°E)
Time: 00:23:03
(UTC+00:00)

SR - All Passes

Search period start: 25 January 2020 00:00
Search period end: 04 February 2020 00:00
Orbit: 574 x 882 km, 66.7° (Epoch: 24 January)

Date Brightness Start Highest point End Pass type
(mag) Time Alt. Az. Time Alt. Az. Time Alt. Az.
25 Jan - 07:58:37 10° NNW 08:03:34 59° WSW 08:08:05 10° S daylight
25 Jan - 20:30:21 10° SSW 20:35:49 78° WNW 20:41:40 10° NNE visible
26 Jan - 07:09:04 10° N 07:13:58 49° ENE 07:18:26 10° SE daylight
26 Jan - 19:41:06 10° S 19:46:16 44° ESE 19:51:46 10° NE visible
26 Jan - 21:25:08 10° W 21:28:26 16° WNW 21:31:50 10° NNW night (unlit)
27 Jan - 06:20:35 10° NNE 06:24:10 19° ENE 06:27:33 10° ESE daylight
27 Jan - 08:02:08 10° NW 08:06:02 24° WSW 08:09:41 10° SSW daylight
27 Jan - 18:53:08 10° SSE 18:56:51 19° ESE 19:00:42 10° ENE visible
27 Jan - 20:33:31 10° SW 20:38:34 36° WNW 20:43:53 10° N visible
28 Jan - 07:11:38 10° NNW 07:16:36 65° WSW 07:21:07 10° S daylight
28 Jan - 19:43:22 10° SSW 19:48:52 84° WNW 19:54:44 10° NNE visible
29 Jan - 06:22:11 10° N 06:26:59 45° ENE 06:31:22 10° SE daylight
29 Jan - 18:54:13 10° S 18:59:20 41° ESE 19:04:46 10° NE visible
29 Jan - 20:37:51 10° WSW 20:41:27 17° WNW 20:45:08 10° NNW visible
30 Jan - 05:33:50 10° NNE 05:37:10 18° ENE 05:40:19 10° ESE visible
30 Jan - 07:15:03 10° NW 07:19:04 26° WSW 07:22:50 10° SSW daylight
30 Jan - 18:06:24 10° SE 18:09:55 17° ESE 18:13:32 10° ENE visible
30 Jan - 19:46:26 10° SW 19:51:36 39° WNW 19:57:01 10° N visible
31 Jan - 06:24:40 10° NNW 06:29:37 72° WSW 06:34:08 10° SSE daylight
31 Jan - 18:56:22 10° SSW 19:01:55 90° WNW 19:07:48 10° NNE visible
01 Feb - 05:35:17 10° N 05:39:59 41° ENE 05:44:18 10° SE daylight
01 Feb - 18:07:18 10° S 18:12:23 38° ESE 18:17:44 10° NE visible
01 Feb - 19:50:37 10° WSW 19:54:27 19° WNW 19:58:26 10° NNW visible
02 Feb - 04:47:06 10° NNE 04:50:09 16° ENE 04:53:03 10° E visible
02 Feb - 06:27:58 10° NW 06:32:06 28° WSW 06:35:57 10° SSW daylight
02 Feb - 17:19:41 10° SE 17:22:58 16° ESE 17:26:20 10° ENE daylight
02 Feb - 18:59:22 10° SW 19:04:38 42° WNW 19:10:09 10° N visible
03 Feb - 05:37:42 10° NNW 05:42:38 79° WSW 05:47:09 10° SSE daylight
03 Feb - 18:09:24 10° SSW 18:14:57 84° ESE 18:20:51 10° NNE visible
